BADGR41 KRIV-KNLC

Flight info

Callsign BADGR41
Flight time 0h 20m
Altitude 13500
Route KRIV EDDSO RABBL HELMM MIKSE RW14R
Aircraft F22/L-ICAO/C

Departure

Time 2026-04-18 20:02
Airport March Air Reserve Base (KRIV)

Arrival

Time 2026-04-18 20:22
Airport Lemoore Naval Air Station (Reeves Field) Airport (KNLC)
Time Latitude Longitude Altitude Speed Heading
2026-04-18 19:52 33.89511 -117.26148 1529 ft 0 kts 40°
2026-04-18 19:54 33.89512 -117.26147 1529 ft 0 kts 40°
2026-04-18 19:54 33.89528 -117.26145 1527 ft 5 kts 336°
2026-04-18 19:55 33.89546 -117.26192 1526 ft 7 kts 253°
2026-04-18 19:55 33.89499 -117.26251 1526 ft 12 kts 214°
2026-04-18 19:55 33.89421 -117.26210 1527 ft 15 kts 135°
2026-04-18 19:55 33.89336 -117.26109 1527 ft 19 kts 135°
2026-04-18 19:56 33.89236 -117.25987 1525 ft 22 kts 135°
2026-04-18 19:56 33.89117 -117.25844 1524 ft 26 kts 135°
2026-04-18 19:56 33.88980 -117.25681 1520 ft 29 kts 135°
2026-04-18 19:56 33.88830 -117.25500 1519 ft 32 kts 135°
2026-04-18 19:57 33.88672 -117.25309 1518 ft 24 kts 135°
2026-04-18 19:57 33.88573 -117.25203 1516 ft 12 kts 162°
2026-04-18 19:57 33.88486 -117.25243 1516 ft 15 kts 210°
2026-04-18 19:57 33.88397 -117.25326 1515 ft 18 kts 234°
2026-04-18 19:58 33.88374 -117.25486 1516 ft 21 kts 269°
2026-04-18 19:58 33.88372 -117.25663 1519 ft 22 kts 269°
2026-04-18 19:58 33.88370 -117.25860 1516 ft 26 kts 269°
2026-04-18 19:58 33.88366 -117.26035 1516 ft 12 kts 262°
2026-04-18 19:59 33.88307 -117.26096 1518 ft 13 kts 176°
2026-04-18 19:59 33.88184 -117.26026 1521 ft 32 kts 149°
2026-04-18 19:59 33.87962 -117.25867 1521 ft 38 kts 149°
2026-04-18 19:59 33.87727 -117.25700 1517 ft 40 kts 149°
2026-04-18 20:00 33.87484 -117.25528 1516 ft 42 kts 150°
2026-04-18 20:00 33.87235 -117.25351 1519 ft 42 kts 149°
2026-04-18 20:00 33.86986 -117.25174 1518 ft 42 kts 150°
2026-04-18 20:00 33.86744 -117.25004 1513 ft 29 kts 153°
2026-04-18 20:01 33.86564 -117.24910 1512 ft 17 kts 151°
2026-04-18 20:01 33.86573 -117.24881 1512 ft 11 kts 325°
2026-04-18 20:01 33.86589 -117.24892 1512 ft 1 kts 330°
2026-04-18 20:01 33.86665 -117.24945 1511 ft 78 kts 329°
2026-04-18 20:02 33.88059 -117.25941 1874 ft 397 kts 329°
2026-04-18 20:02 33.91201 -117.28575 3258 ft 655 kts 319°
2026-04-18 20:02 33.94510 -117.32486 5055 ft 678 kts 312°
2026-04-18 20:02 33.97771 -117.36813 5885 ft 710 kts 313°
2026-04-18 20:03 34.01323 -117.41105 6780 ft 727 kts 315°
2026-04-18 20:03 34.04860 -117.45313 7463 ft 702 kts 315°
2026-04-18 20:03 34.08252 -117.49393 8113 ft 661 kts 313°
2026-04-18 20:03 34.11379 -117.53150 8809 ft 618 kts 315°
2026-04-18 20:04 34.14441 -117.56624 9581 ft 606 kts 318°
2026-04-18 20:04 34.17615 -117.59928 10488 ft 599 kts 319°
2026-04-18 20:04 34.21113 -117.62719 10900 ft 607 kts 328°
2026-04-18 20:04 34.24699 -117.65483 11458 ft 614 kts 324°
2026-04-18 20:05 34.28121 -117.68583 12246 ft 617 kts 321°
2026-04-18 20:05 34.31519 -117.71864 12884 ft 628 kts 319°
2026-04-18 20:05 34.34886 -117.75296 13118 ft 639 kts 317°
2026-04-18 20:05 34.38237 -117.78903 13147 ft 644 kts 316°
2026-04-18 20:06 34.41582 -117.82601 13134 ft 658 kts 315°
2026-04-18 20:06 34.44842 -117.86464 13133 ft 668 kts 315°
2026-04-18 20:06 34.48255 -117.90335 13356 ft 669 kts 314°
2026-04-18 20:06 34.51586 -117.94289 13639 ft 669 kts 313°
2026-04-18 20:07 34.54846 -117.98373 13520 ft 675 kts 312°
2026-04-18 20:07 34.58159 -118.02440 13305 ft 680 kts 314°
2026-04-18 20:07 34.61562 -118.06463 13345 ft 686 kts 313°
2026-04-18 20:07 34.65086 -118.10661 13348 ft 773 kts 314°
2026-04-18 20:08 34.69212 -118.15602 13392 ft 900 kts 312°
2026-04-18 20:08 34.73621 -118.21409 13241 ft 962 kts 313°
2026-04-18 20:08 34.78655 -118.27131 13234 ft 991 kts 316°
2026-04-18 20:08 34.83724 -118.32895 13198 ft 998 kts 315°
2026-04-18 20:09 34.88674 -118.38760 12676 ft 987 kts 314°
2026-04-18 20:09 34.93518 -118.44641 13008 ft 987 kts 314°
2026-04-18 20:09 34.98372 -118.50627 12991 ft 998 kts 314°
2026-04-18 20:09 35.03334 -118.56458 12760 ft 1004 kts 316°
2026-04-18 20:10 35.08511 -118.61640 12715 ft 931 kts 325°
2026-04-18 20:10 35.13815 -118.65806 12982 ft 890 kts 324°
2026-04-18 20:10 35.18846 -118.70105 13072 ft 870 kts 321°
2026-04-18 20:10 35.23665 -118.74558 13436 ft 871 kts 320°
2026-04-18 20:11 35.28363 -118.79365 13491 ft 885 kts 316°
2026-04-18 20:11 35.33028 -118.84465 13352 ft 911 kts 320°
2026-04-18 20:11 35.38097 -118.89211 13431 ft 922 kts 322°
2026-04-18 20:11 35.43199 -118.94027 13426 ft 928 kts 320°
2026-04-18 20:12 35.48158 -118.99126 13437 ft 932 kts 318°
2026-04-18 20:12 35.52951 -119.04372 13389 ft 935 kts 316°
2026-04-18 20:12 35.57657 -119.09884 13483 ft 939 kts 314°
2026-04-18 20:12 35.62333 -119.15669 13534 ft 958 kts 315°
2026-04-18 20:13 35.67206 -119.21300 13526 ft 968 kts 317°
2026-04-18 20:13 35.72318 -119.26757 13583 ft 973 kts 319°
2026-04-18 20:13 35.77504 -119.32135 13655 ft 976 kts 319°
2026-04-18 20:13 35.82680 -119.37602 13488 ft 979 kts 319°
2026-04-18 20:14 35.87828 -119.43139 13310 ft 983 kts 318°
2026-04-18 20:14 35.92912 -119.48709 13409 ft 996 kts 317°
2026-04-18 20:14 35.98112 -119.54432 13439 ft 1005 kts 317°
2026-04-18 20:14 36.03354 -119.60203 13670 ft 1008 kts 318°
2026-04-18 20:15 36.08362 -119.65198 13291 ft 833 kts 319°
2026-04-18 20:15 36.12515 -119.69392 12303 ft 723 kts 318°
2026-04-18 20:15 36.16240 -119.73159 11010 ft 656 kts 318°
2026-04-18 20:15 36.19838 -119.76356 9692 ft 628 kts 326°
2026-04-18 20:16 36.23334 -119.79550 7988 ft 622 kts 314°
2026-04-18 20:16 36.25943 -119.83800 6342 ft 615 kts 302°
2026-04-18 20:16 36.28152 -119.88130 5117 ft 590 kts 300°
2026-04-18 20:16 36.30635 -119.92105 4089 ft 579 kts 315°
2026-04-18 20:17 36.33999 -119.94750 3353 ft 570 kts 333°
2026-04-18 20:17 36.37445 -119.96969 3298 ft 546 kts 328°
2026-04-18 20:17 36.39590 -119.98532 3230 ft 533 kts 326°
2026-04-18 20:17 36.42582 -120.01071 3319 ft 510 kts 321°
2026-04-18 20:18 36.45453 -120.03466 3376 ft 491 kts 340°
2026-04-18 20:18 36.48753 -120.04065 3618 ft 471 kts 356°
2026-04-18 20:18 36.52005 -120.04315 3627 ft 468 kts 355°
2026-04-18 20:18 36.55212 -120.04868 3585 ft 466 kts 327°
2026-04-18 20:19 36.55793 -120.08239 3534 ft 438 kts 231°
2026-04-18 20:19 36.53143 -120.09353 3612 ft 418 kts 160°
2026-04-18 20:19 36.50888 -120.07230 3575 ft 400 kts 138°
2026-04-18 20:19 36.48934 -120.04954 3625 ft 376 kts 136°
2026-04-18 20:20 36.46931 -120.03055 3256 ft 344 kts 157°
2026-04-18 20:20 36.44740 -120.02150 2780 ft 322 kts 159°
2026-04-18 20:20 36.42703 -120.01176 2260 ft 306 kts 156°
2026-04-18 20:20 36.40835 -120.00175 1968 ft 284 kts 155°
2026-04-18 20:21 36.39238 -119.99316 1719 ft 215 kts 155°
2026-04-18 20:21 36.38008 -119.98654 1451 ft 177 kts 153°
2026-04-18 20:21 36.36905 -119.98040 1173 ft 178 kts 155°
2026-04-18 20:21 36.35679 -119.97393 986 ft 201 kts 154°
2026-04-18 20:22 36.34429 -119.96701 624 ft 186 kts 153°
2026-04-18 20:22 36.33399 -119.96128 256 ft 138 kts 154°
2026-04-18 20:22 36.32714 -119.95727 233 ft 88 kts 158°
2026-04-18 20:22 36.32319 -119.95516 235 ft 41 kts 156°
2026-04-18 20:23 36.32059 -119.95373 239 ft 41 kts 156°
2026-04-18 20:23 36.31821 -119.95245 233 ft 21 kts 155°
2026-04-18 20:23 36.31801 -119.95157 233 ft 17 kts 359°
2026-04-18 20:23 36.31931 -119.95169 236 ft 20 kts 356°
2026-04-18 20:24 36.32079 -119.95208 234 ft 23 kts 339°
2026-04-18 20:24 36.32239 -119.95294 234 ft 27 kts 335°
2026-04-18 20:24 36.32416 -119.95392 234 ft 29 kts 336°
2026-04-18 20:24 36.32556 -119.95466 236 ft 15 kts 350°
2026-04-18 20:25 36.32622 -119.95369 237 ft 19 kts 66°
2026-04-18 20:25 36.32687 -119.95188 235 ft 26 kts 65°
2026-04-18 20:25 36.32766 -119.94978 237 ft 26 kts 66°
2026-04-18 20:25 36.32791 -119.94907 235 ft 2 kts 66°
2026-04-18 20:26 36.32793 -119.94900 235 ft 8 kts 72°
2026-04-18 20:26 36.32803 -119.94786 235 ft 15 kts 110°
2026-04-18 20:26 36.32724 -119.94678 237 ft 18 kts 148°
2026-04-18 20:26 36.32617 -119.94624 235 ft 13 kts 156°
2026-04-18 20:27 36.32590 -119.94600 235 ft 5 kts 117°
2026-04-18 20:27 36.32603 -119.94579 235 ft 0 kts 344°